GHGSAT-C5

导读

GHGSAT-C5又名“Diako”,于2022年5月25日由加拿大GHGSat公司,在SpaceX的Transporter-5任务中发射升空。它是GHGSat温室气体监测星座的成员之一,能凭借超高分辨率,探测比其他卫星所能发现小100倍的甲烷排放源,精准识别量化油气井等点源的甲烷泄漏,助力全球气候治理与碳排放管控。

基本信息
目录编号:
52744
目录名称:
GHGSAT-C5
国际标识:
2022-057N
轨道中心:
EARTH
卫星名称:
GHGSAT-C5
卫星全名:
--
卫星状态:
在轨 (已飞行1481 天)
发射日期:
2022-05-25 UTC
国别 :
加拿大 (CA)
星等 :
--
轨道信息
数据来源 国际轨道数据
星历时间: 2026-06-15T00:03:54+0800
6小时前
查看轨道信息
半长轴: 6841.134km
偏心率: 0.0007838
轨道倾角: 97.668°
近地点辐角 123.613°
升交点赤经 312.802°
平近点角 236.586°
近地点: 457.634km
远地点: 468.36km
周期: 93.854分钟
每日圈数: 15.343013
详细信息
使用方式:
暂无
2D轨道图
3D轨道图
轨道高度分析图
轨道倾角分析图
轨道综合分析图
查看轨道综合分析图